Satellite: RESURS Catalog number: 25394 Epoch time: 09280.92048615 Element set: 0345 Inclination: 098.3327 deg RA of node: 307.4875 deg Eccentricity: 0.0000531 Arg of perigee: 243.4385 deg Mean anomaly: 116.6740 deg Mean motion: 14.24188330 rev/day Decay rate: -4.1e-07 rev/day^2 Epoch rev: 58444 Checksum: 293
Satellite: FENGYUN1 Catalog number: 25730 Epoch time: 09280.92007045 Element set: 0872 Inclination: 098.7636 deg RA of node: 247.7460 deg Eccentricity: 0.0020997 Arg of perigee: 258.0699 deg Mean anomaly: 101.8116 deg Mean motion: 14.08002087 rev/day Decay rate: 3.89e-06 rev/day^2 Epoch rev: 53618 Checksum: 316
Satellite: OKEAN-0 Catalog number: 25860 Epoch time: 09280.75470615 Element set: 803 Inclination: 097.7998 deg RA of node: 257.5425 deg Eccentricity: 0.0001172 Arg of perigee: 101.6818 deg Mean anomaly: 258.4517 deg Mean motion: 14.73590637 rev/day Decay rate: 3.1e-07 rev/day^2 Epoch rev: 54972 Checksum: 320
Satellite: NOAA-16 Catalog number: 26536 Epoch time: 09280.63523620 Element set: 0590 Inclination: 099.1800 deg RA of node: 287.0452 deg Eccentricity: 0.0010065 Arg of perigee: 330.0886 deg Mean anomaly: 029.9681 deg Mean motion: 14.12535444 rev/day Decay rate: 1.71e-06 rev/day^2 Epoch rev: 46617 Checksum: 295
Satellite: NOAA-17 Catalog number: 27453 Epoch time: 09280.90938415 Element set: 0583 Inclination: 098.4707 deg RA of node: 336.0241 deg Eccentricity: 0.0012307 Arg of perigee: 150.6224 deg Mean anomaly: 209.5635 deg Mean motion: 14.24096894 rev/day Decay rate: 1.95e-06 rev/day^2 Epoch rev: 37879 Checksum: 326
Satellite: NOAA-18 Catalog number: 28654 Epoch time: 09280.91543524 Element set: 0071 Inclination: 098.9179 deg RA of node: 223.3263 deg Eccentricity: 0.0015084 Arg of perigee: 047.2405 deg Mean anomaly: 313.0081 deg Mean motion: 14.11290338 rev/day Decay rate: 5.2e-07 rev/day^2 Epoch rev: 22585 Checksum: 286
Satellite: NOAA-19 Catalog number: 33591 Epoch time: 09280.91963383 Element set: 0276 Inclination: 098.7572 deg RA of node: 223.7961 deg Eccentricity: 0.0013270 Arg of perigee: 285.9174 deg Mean anomaly: 074.0567 deg Mean motion: 14.10989645 rev/day Decay rate: -3.4e-07 rev/day^2 Epoch rev: 03433 Checksum: 332
/EX SB KEPS @ AMSAT $ORB09281.M Orbital Elements 09281.MISC
HR AMSAT ORBITAL ELEMENTS FOR MANNED AND MISCELLANEOUS SATELLITES FROM WA5QGD FORT WORTH,TX October 8, 2009 Send Subscribe/unsubscribe to KEPS at http://www.amsat.org/mailman/listinfo/keps BID: ORB09281.M TO ALL RADIO AMATEURS BT
Satellite: HUBBLE Catalog number: 20580 Epoch time: 09279.89851369 Element set: 0458 Inclination: 028.4687 deg RA of node: 093.2015 deg Eccentricity: 0.0003125 Arg of perigee: 031.7239 deg Mean anomaly: 328.3580 deg Mean motion: 15.00837150 rev/day Decay rate: 3.75e-06 rev/day^2 Epoch rev: 86665 Checksum: 313
Satellite: ISS Catalog number: 25544 Epoch time: 09281.83912093 Element set: 748 Inclination: 051.6385 deg RA of node: 083.2882 deg Eccentricity: 0.0008095 Arg of perigee: 175.9703 deg Mean anomaly: 325.2543 deg Mean motion: 15.74680102 rev/day Decay rate: 1.0859e-04 rev/day^2 Epoch rev: 62385 Checksum: 319
Satellite: CO-58 Catalog number: 28895 Epoch time: 09281.23000602 Element set: 414 Inclination: 098.0413 deg RA of node: 168.5777 deg Eccentricity: 0.0017893 Arg of perigee: 358.0110 deg Mean anomaly: 002.1000 deg Mean motion: 14.59800847 rev/day Decay rate: 3.9e-07 rev/day^2 Epoch rev: 21022 Checksum: 278
Satellite: FALCON Catalog number: 30776 Epoch time: 09281.80143987 Element set: 674 Inclination: 035.4326 deg RA of node: 130.0566 deg Eccentricity: 0.0000951 Arg of perigee: 245.7933 deg Mean anomaly: 114.2685 deg Mean motion: 15.03323252 rev/day Decay rate: 4.55e-06 rev/day^2 Epoch rev: 14220 Checksum: 277
Satellite: MAST Catalog number: 31126 Epoch time: 09280.65627730 Element set: 0704 Inclination: 097.9763 deg RA of node: 330.2374 deg Eccentricity: 0.0093702 Arg of perigee: 291.1492 deg Mean anomaly: 067.9729 deg Mean motion: 14.53520116 rev/day Decay rate: 3.3e-07 rev/day^2 Epoch rev: 13137 Checksum: 290
Satellite: CAPE1 Catalog number: 31130 Epoch time: 09281.70174450 Element set: 713 Inclination: 097.9782 deg RA of node: 329.1653 deg Eccentricity: 0.0102090 Arg of perigee: 294.2390 deg Mean anomaly: 064.8171 deg Mean motion: 14.52091410 rev/day Decay rate: -8.6e-07 rev/day^2 Epoch rev: 13116 Checksum: 271
Satellite: COMPASS Catalog number: 32787 Epoch time: 09280.20827668 Element set: 0491 Inclination: 097.9312 deg RA of node: 343.0175 deg Eccentricity: 0.0016420 Arg of perigee: 032.2781 deg Mean anomaly: 327.9427 deg Mean motion: 14.81665848 rev/day Decay rate: 3.19e-06 rev/day^2 Epoch rev: 07803 Checksum: 314
Satellite: AAUSAT2 Catalog number: 32788 Epoch time: 09280.63946002 Element set: 0483 Inclination: 097.9321 deg RA of node: 343.5235 deg Eccentricity: 0.0016287 Arg of perigee: 031.9920 deg Mean anomaly: 328.2263 deg Mean motion: 14.81792975 rev/day Decay rate: 4.32e-06 rev/day^2 Epoch rev: 07810 Checksum: 311
Satellite: DO-64 Catalog number: 32789 Epoch time: 09280.72853768 Element set: 0495 Inclination: 097.9361 deg RA of node: 343.8480 deg Eccentricity: 0.0016267 Arg of perigee: 029.3089 deg Mean anomaly: 330.9027 deg Mean motion: 14.81808158 rev/day Decay rate: 1.91e-06 rev/day^2 Epoch rev: 07811 Checksum: 346
Satellite: CO-66 Catalog number: 32791 Epoch time: 09281.75020518 Element set: 476 Inclination: 097.9327 deg RA of node: 344.5763 deg Eccentricity: 0.0016795 Arg of perigee: 025.2639 deg Mean anomaly: 334.9387 deg Mean motion: 14.81487907 rev/day Decay rate: 3.77e-06 rev/day^2 Epoch rev: 7822 Checksum: 355
Satellite: RS-30 Catalog number: 32953 Epoch time: 09280.71417010 Element set: 0425 Inclination: 082.5051 deg RA of node: 186.6489 deg Eccentricity: 0.0018502 Arg of perigee: 297.4731 deg Mean anomaly: 062.4460 deg Mean motion: 12.43003073 rev/day Decay rate: 1.0e-07 rev/day^2 Epoch rev: 06237 Checksum: 263
Satellite: TACSAT-3 Catalog number: 35001 Epoch time: 09279.49558526 Element set: 0123 Inclination: 040.4572 deg RA of node: 294.8373 deg Eccentricity: 0.0025205 Arg of perigee: 271.0566 deg Mean anomaly: 088.7360 deg Mean motion: 15.39272655 rev/day Decay rate: 2.903e-05 rev/day^2 Epoch rev: 02150 Checksum: 296
Satellite: PHARMSAT Catalog number: 35002 Epoch time: 09280.39909510 Element set: 110 Inclination: 040.4707 deg RA of node: 288.6142 deg Eccentricity: 0.0028074 Arg of perigee: 281.6651 deg Mean anomaly: 078.1014 deg Mean motion: 15.40022592 rev/day Decay rate: 2.463e-05 rev/day^2 Epoch rev: 2164 Checksum: 257
Satellite: HAWKSAT1 Catalog number: 35003 Epoch time: 09280.41205313 Element set: 0119 Inclination: 040.4635 deg RA of node: 287.7151 deg Eccentricity: 0.0028403 Arg of perigee: 285.3324 deg Mean anomaly: 074.4353 deg Mean motion: 15.40840447 rev/day Decay rate: 4.744e-05 rev/day^2 Epoch rev: 02166 Checksum: 263
Satellite: CP6 Catalog number: 35004 Epoch time: 09280.41004387 Element set: 0114 Inclination: 040.4637 deg RA of node: 287.7061 deg Eccentricity: 0.0027853 Arg of perigee: 285.3055 deg Mean anomaly: 074.4680 deg Mean motion: 15.40927094 rev/day Decay rate: 5.338e-05 rev/day^2 Epoch rev: 02165 Checksum: 289
Satellite: AEROCUB3 Catalog number: 35005 Epoch time: 09280.94589624 Element set: 0122 Inclination: 040.4764 deg RA of node: 284.8862 deg Eccentricity: 0.0027744 Arg of perigee: 286.6250 deg Mean anomaly: 073.1519 deg Mean motion: 15.40712676 rev/day Decay rate: 4.878e-05 rev/day^2 Epoch rev: 02173 Checksum: 316
Satellite: DRAGNSAT Catalog number: 35690 Epoch time: 09281.71213203 Element set: 68 Inclination: 051.6419 deg RA of node: 079.6538 deg Eccentricity: 0.0003235 Arg of perigee: 343.3974 deg Mean anomaly: 016.6919 deg Mean motion: 15.83740608 rev/day Decay rate: 3.0857e-04 rev/day^2 Epoch rev: 1111 Checksum: 294
Satellite: POLLUX Catalog number: 35693 Epoch time: 09281.73835499 Element set: 69 Inclination: 051.6378 deg RA of node: 079.8398 deg Eccentricity: 0.0003089 Arg of perigee: 278.3421 deg Mean anomaly: 081.6987 deg Mean motion: 15.82980838 rev/day Decay rate: 2.8510e-04 rev/day^2 Epoch rev: 1108 Checksum: 354
Satellite: CASTOR Catalog number: 35694 Epoch time: 09281.76994682 Element set: 66 Inclination: 051.6392 deg RA of node: 080.0666 deg Eccentricity: 0.0003151 Arg of perigee: 285.4687 deg Mean anomaly: 074.5880 deg Mean motion: 15.81502465 rev/day Decay rate: 1.4667e-04 rev/day^2 Epoch rev: 1108 Checksum: 322
Satellite: METEOR-M Catalog number: 35865 Epoch time: 09281.76650640 Element set: 19 Inclination: 098.7975 deg RA of node: 331.8829 deg Eccentricity: 0.0002899 Arg of perigee: 027.2485 deg Mean anomaly: 332.8774 deg Mean motion: 14.21827137 rev/day Decay rate: 1.76e-06 rev/day^2 Epoch rev: 299 Checksum: 340
Satellite: STERKH-2 Catalog number: 35866 Epoch time: 09280.63398785 Element set: 0022 Inclination: 098.7987 deg RA of node: 330.7740 deg Eccentricity: 0.0003392 Arg of perigee: 029.6061 deg Mean anomaly: 330.5271 deg Mean motion: 14.22296401 rev/day Decay rate: 1.78e-06 rev/day^2 Epoch rev: 00283 Checksum: 306
Satellite: FREGAT-I Catalog number: 35867 Epoch time: 09281.82260829 Element set: 33 Inclination: 097.3715 deg RA of node: 331.5049 deg Eccentricity: 0.0008931 Arg of perigee: 209.1338 deg Mean anomaly: 150.9240 deg Mean motion: 15.22722183 rev/day Decay rate: 2.264e-05 rev/day^2 Epoch rev: 321 Checksum: 279
Satellite: SUMBDILA Catalog number: 35870 Epoch time: 09281.90645946 Element set: 60 Inclination: 097.3706 deg RA of node: 331.5781 deg Eccentricity: 0.0010696 Arg of perigee: 214.8334 deg Mean anomaly: 251.3038 deg Mean motion: 15.22803385 rev/day Decay rate: 4.29e-06 rev/day^2 Epoch rev: 322 Checksum: 289
/EX